Location: Mascot Post Office (historical)
(40.2645°N, 99.5462°W)
Time: 07:16:12
(UTC+00:00)

NOSS 3-4 (C) - Visible Passes

Search period start: 20 October 2020 00:00
Search period end: 30 October 2020 00:00
Orbit: 886 x 1326 km, 63.4° (Epoch: 19 October)

Date Brightness Start Highest point End Pass type
(mag) Time Alt. Az. Time Alt. Az. Time Alt. Az.
20 Oct 5.5 03:02:46 10° NNW 03:05:33 20° N 03:05:33 20° N visible
20 Oct 6.4 04:52:57 10° NW 04:52:58 10° NW 04:52:58 10° NW visible
21 Oct 5.4 02:18:22 10° N 02:22:07 18° NNE 02:22:07 18° NNE visible
21 Oct 6.0 04:08:13 10° NNW 04:09:33 17° NNW 04:09:33 17° NNW visible
22 Oct 5.5 01:34:05 10° N 01:37:28 14° NNE 01:38:43 13° NE visible
22 Oct 5.5 03:23:36 10° NNW 03:26:09 23° NNW 03:26:09 23° NNW visible
23 Oct 5.7 00:50:09 10° N 00:51:47 11° NNE 00:53:26 10° NNE visible
23 Oct 5.2 02:39:04 10° NNW 02:42:47 26° N 02:42:47 26° N visible
23 Oct 6.2 04:29:28 10° NW 04:30:13 14° NW 04:30:13 14° NW visible
24 Oct 5.1 01:54:37 10° NNW 01:59:27 22° NNE 01:59:27 22° NNE visible
24 Oct 5.6 03:44:39 10° NNW 03:46:54 23° NNW 03:46:54 23° NNW visible
25 Oct 5.3 01:10:16 10° N 01:14:26 16° NNE 01:16:10 15° NE visible
25 Oct 5.0 02:59:58 10° NNW 03:03:37 32° N 03:03:37 32° N visible
26 Oct 5.6 00:26:03 10° N 00:28:49 12° NNE 00:31:41 10° NE visible
26 Oct 4.7 02:15:24 10° NNW 02:20:22 35° NNE 02:20:22 35° NNE visible
26 Oct 5.9 04:06:05 10° NW 04:07:49 19° NW 04:07:49 19° NW visible
27 Oct 4.8 01:30:54 10° NNW 01:36:41 27° NE 01:37:12 27° NE visible
27 Oct 5.2 03:21:09 10° NW 03:24:39 33° NW 03:24:39 33° NW visible
28 Oct 5.2 00:46:29 10° NNW 00:51:21 20° NNE 00:54:05 16° ENE visible
28 Oct 4.3 02:36:24 10° NNW 02:41:32 50° N 02:41:32 50° N visible
28 Oct 6.3 04:28:12 10° WNW 04:29:00 13° WNW 04:29:00 13° WNW visible
29 Oct 5.4 00:02:10 10° N 00:05:50 15° NNE 00:09:39 10° ENE visible
29 Oct 4.1 01:51:46 10° NNW 01:58:31 47° NE 01:58:31 47° NE visible
29 Oct 5.6 03:42:47 10° NW 03:45:59 26° WNW 03:45:59 26° WNW visible
